Wind_Speed
16 16 15 15 16 16 16 16 16 16 16 16 17 16 15 16 15 15 15 15 15 14 14 14 14 14 13 13 13 13 14 14 13 13 14 13 14 14 14 15 15 15 15
16 16 16 16 16 16 17 17 17 17 17 17 17 17 16 16 15 15 15 15 15 14 14 14 15 15 14 14 14 14 14 13 13 13 13 13 13 14 15 15 16 16 16
16 16 16 16 15 15 16 16 16 17 17 16 17 17 16 16 16 16 15 15 15 15 14 14 14 14 14 14 13 13 13 13 13 13 12 13 13 14 15 15 16 17 18
16 15 16 16 16 16 15 16 16 16 16 16 16 16 16 17 17 16 16 15 15 14 14 13 13 14 13 13 13 13 12 12 13 13 13 13 13 14 15 16 17 18 19
16 16 15 15 16 16 16 16 15 15 15 16 17 16 16 16 16 16 16 15 15 14 14 14 14 13 14 13 13 12 12 12 13 13 14 14 15 16 17 17 18 19 19
16 16 15 15 15 15 16 16 15 15 16 16 16 16 16 16 16 16 16 15 15 15 15 15 14 14 14 14 13 13 13 14 14 14 15 15 16 16 17 18 19 20 20
16 16 16 15 15 15 15 15 16 16 15 15 16 15 16 16 16 16 16 15 15 15 15 15 14 14 14 14 14 14 14 15 15 16 16 16 16 16 18 19 20 21 22
16 15 15 16 16 16 15 14 14 15 15 15 15 15 15 16 16 16 16 16 16 16 16 16 15 14 14 15 15 15 15 15 16 16 16 16 17 18 19 20 20 21 22
15 14 15 15 14 14 14 14 14 15 15 15 14 14 15 15 16 16 16 16 16 16 16 16 15 15 15 16 16 15 15 16 16 17 17 18 18 19 20 20 21 22 23
14 14 14 14 14 14 14 14 14 14 14 14 14 14 14 15 16 16 16 16 16 16 16 15 15 15 16 16 16 16 16 16 17 17 18 19 19 20 20 21 22 23 24
14 14 14 14 14 14 14 14 14 14 14 14 14 14 14 15 16 16 17 17 17 16 16 16 16 17 17 16 16 16 16 17 17 18 19 19 20 20 21 22 23 24 25
15 14 14 15 15 15 15 14 14 14 14 14 14 14 15 16 16 17 17 17 17 17 17 17 17 18 18 17 18 18 18 18 19 19 20 20 21 22 22 23 25 26 26
15 15 15 16 16 15 15 15 15 14 14 14 14 15 15 16 16 16 17 17 17 17 18 18 19 19 18 19 19 19 19 19 20 21 21 22 23 23 24 25 26 27 27
16 16 16 17 17 17 16 16 15 15 15 16 15 15 15 16 16 17 17 18 18 19 20 20 20 20 19 19 20 20 20 20 21 22 23 24 24 25 26 27 27 27 28
18 17 17 18 18 18 17 17 17 17 17 17 16 16 16 16 17 18 19 19 19 20 20 20 20 19 19 20 20 21 22 22 23 23 24 24 25 26 27 27 27 28 29
18 18 18 18 18 19 18 18 18 18 18 18 18 18 18 18 18 18 19 20 20 20 20 20 20 20 20 21 21 22 23 24 24 25 25 26 26 27 27 28 29 29 30
19 19 19 19 19 19 19 19 19 19 19 20 20 20 20 20 20 20 20 21 21 21 21 21 21 22 22 22 23 23 23 24 25 26 27 27 27 28 28 29 30 31 31
21 20 20 20 20 21 20 20 21 21 22 22 22 21 22 22 22 21 21 21 21 22 22 22 23 23 24 24 25 24 24 25 27 27 27 27 27 29 29 30 31 31 31
23 22 22 21 21 21 21 22 22 22 23 24 24 24 23 24 23 23 23 22 22 23 23 24 24 25 25 26 26 26 26 26 27 27 28 29 29 30 30 31 31 31 31
24 24 23 23 22 22 22 23 23 24 24 25 25 25 25 25 24 24 24 24 25 25 25 25 25 26 27 27 27 27 28 28 28 28 28 29 29 30 30 30 30 31 31
25 25 24 24 25 25 25 25 25 25 26 26 26 26 26 26 26 26 26 26 26 26 26 26 27 27 28 28 28 28 29 28 28 28 29 29 29 30 29 29 30 31 31
26 26 25 25 25 25 25 25 25 25 25 26 26 26 27 27 28 28 28 28 27 27 27 27 27 28 28 29 29 29 28 28 28 28 28 28 29 29 29 29 30 31 31
27 27 26 26 26 26 25 25 25 26 26 26 26 27 27 27 28 28 27 27 27 27 27 27 28 28 28 28 29 29 28 28 28 28 28 28 29 30 30 30 30 30 31
28 28 27 27 27 27 27 27 27 26 26 26 27 27 27 27 27 27 26 26 27 27 27 27 28 28 28 28 28 28 28 28 28 28 29 28 29 29 30 30 30 31 31
29 29 29 28 28 28 28 28 28 27 27 27 27 27 27 27 27 27 26 26 26 27 27 28 28 29 28 28 28 28 28 28 29 29 29 29 29 29 29 30 30 31 32
30 30 30 30 30 30 29 29 29 29 29 29 29 28 28 28 27 27 27 27 27 28 28 28 28 29 28 28 28 28 28 28 28 28 29 29 29 29 29 30 31 32 33
Wind_Direction
255 256 257 259 261 259 258 258 260 263 263 262 262 264 266 268 267 269 272 275 276 274 274 272 273 276 278 277 277 277 276 278 279 278 280 283 283 281 282 284 286 286 285
254 255 256 259 259 257 256 258 260 262 262 263 264 264 266 266 266 270 273 274 274 274 273 273 273 274 275 277 277 276 276 278 279 279 283 284 283 281 282 283 285 287 288
258 258 258 258 258 257 258 259 260 261 261 262 264 265 266 267 268 269 270 273 272 274 274 274 273 272 275 277 276 274 274 276 276 277 280 283 282 282 283 284 287 288 288
261 261 261 259 259 259 259 259 259 261 262 261 264 267 267 267 266 264 266 270 272 271 271 273 274 274 275 276 273 272 274 276 278 279 281 284 284 285 286 287 288 288 288
261 261 262 262 260 259 258 257 259 262 263 266 268 269 268 268 264 264 265 270 269 268 270 272 273 274 276 273 271 271 273 276 280 282 283 286 287 287 287 289 291 291 291
262 261 263 263 262 262 259 258 260 262 264 267 269 269 268 266 264 264 265 264 265 266 269 273 271 271 274 274 272 275 278 279 281 283 283 285 287 287 288 290 291 292 293
261 258 259 261 261 261 261 259 260 262 265 265 268 269 267 264 263 263 263 266 268 269 270 272 272 273 275 274 274 278 280 280 281 282 283 285 288 289 290 291 293 295 295
261 258 256 259 260 259 260 261 264 264 266 267 268 267 267 264 264 265 264 265 268 269 269 269 270 272 273 275 277 278 279 282 282 282 282 284 286 288 290 293 294 295 295
259 260 260 257 256 259 263 265 266 265 268 268 266 265 268 269 266 265 266 267 269 268 266 266 268 272 274 276 279 281 281 281 281 283 284 286 289 291 293 293 294 294 295
256 257 259 258 260 262 264 266 266 264 267 265 266 268 270 272 271 267 266 268 270 268 270 268 268 270 274 276 279 281 283 283 283 284 286 288 291 292 294 295 295 296 297
256 257 259 261 262 263 265 266 264 265 265 263 265 268 271 273 272 270 269 269 269 268 269 269 269 271 274 275 276 280 282 285 286 287 288 289 292 294 295 296 298 298 299
256 258 258 259 262 263 266 266 265 266 264 264 268 272 274 276 275 272 270 270 268 268 268 269 269 271 272 274 276 280 281 285 288 289 290 291 293 294 294 295 297 299 298
257 258 258 258 261 264 265 264 264 266 264 265 271 275 276 276 277 274 272 271 270 268 267 269 270 272 272 274 277 280 281 284 287 289 291 292 294 294 293 294 296 298 298
256 257 259 259 259 260 262 263 264 266 266 265 268 273 277 276 274 273 275 273 271 271 270 269 269 270 271 274 277 279 281 284 288 290 291 293 293 294 295 295 296 297 298
257 258 259 259 258 258 259 261 263 265 267 265 267 270 273 274 274 275 276 276 275 275 274 271 269 270 272 276 279 283 284 285 287 289 291 293 294 295 296 297 298 298 300
257 259 260 260 258 258 259 261 265 266 266 265 266 270 272 273 274 276 279 280 278 278 278 277 275 274 275 278 280 283 284 285 288 290 290 292 294 296 297 298 299 300 301
259 258 259 260 259 259 260 262 265 267 268 267 268 269 270 273 276 277 279 280 281 281 279 277 275 276 277 279 281 283 285 286 288 289 290 292 294 296 298 299 301 302 303
259 259 260 260 260 262 263 264 265 266 266 266 267 268 270 271 275 276 278 280 280 280 278 277 276 277 279 281 283 284 285 285 288 290 291 293 295 296 297 300 302 303 303
259 260 261 261 261 262 264 265 266 267 266 266 266 266 268 271 274 276 277 277 279 279 277 275 276 277 279 281 283 284 285 287 289 291 292 293 294 296 298 300 301 302 303
258 259 260 261 263 264 265 266 267 267 267 267 267 267 269 272 274 277 278 277 278 278 276 276 277 278 280 282 284 285 287 289 290 290 291 293 294 295 297 299 301 302 303
258 258 260 261 263 266 268 268 267 266 265 266 267 268 270 273 275 275 276 276 276 275 275 276 277 279 282 284 285 286 287 289 290 290 292 293 294 296 297 299 300 302 303
257 259 261 262 264 267 268 268 268 268 268 270 270 271 272 274 275 275 276 276 276 276 276 277 278 280 282 283 284 285 286 288 290 291 292 292 294 296 297 298 299 302 304
256 258 260 261 263 265 267 268 269 270 271 272 272 271 273 276 277 275 275 276 275 276 276 276 278 280 282 284 285 285 286 287 289 290 292 293 294 296 298 299 299 301 303
256 259 261 262 263 264 267 268 269 270 271 272 273 274 275 276 276 274 274 274 275 276 276 277 279 281 282 285 286 286 286 287 288 290 290 292 294 297 299 299 300 301 303
256 259 261 262 264 265 267 268 268 269 270 271 273 273 274 275 275 273 273 274 275 276 277 277 279 281 283 285 285 285 285 286 288 289 290 292 294 296 298 300 301 302 303
258 258 260 262 263 264 266 267 268 270 270 272 272 272 272 274 274 273 274 275 275 276 277 278 279 280 281 283 284 284 285 287 288 289 290 292 293 296 299 300 301 302 304
Height
5836 5837 5837 5837 5838 5838 5838 5838 5839 5839 5839 5839 5839 5839 5839 5839 5838 5838 5838 5837 5837 5836 5835 5835 5834 5833 5833 5832 5831 5830 5829 5828 5826 5825 5824 5822 5821 5821 5821 5820 5819 5818 5817
5832 5832 5833 5833 5833 5834 5834 5834 5835 5834 5834 5834 5835 5835 5835 5834 5834 5834 5834 5833 5833 5832 5832 5831 5830 5829 5829 5828 5826 5826 5825 5824 5823 5822 5820 5819 5818 5818 5817 5816 5815 5814 5813
5827 5828 5828 5829 5829 5829 5829 5830 5830 5830 5830 5830 5830 5830 5830 5830 5830 5830 5829 5829 5828 5828 5827 5827 5826 5825 5825 5823 5822 5821 5821 5820 5819 5818 5817 5816 5815 5814 5813 5812 5811 5809 5808
5823 5823 5824 5824 5825 5825 5825 5825 5825 5826 5826 5826 5826 5826 5825 5825 5825 5825 5825 5824 5824 5823 5823 5823 5822 5821 5821 5819 5818 5817 5817 5816 5815 5814 5814 5812 5811 5810 5809 5808 5806 5805 5803
5818 5819 5819 5820 5820 5820 5820 5821 5821 5821 5821 5821 5821 5821 5821 5821 5821 5820 5820 5820 5819 5819 5819 5818 5818 5817 5816 5816 5815 5814 5813 5812 5811 5810 5809 5808 5807 5806 5805 5803 5802 5800 5798
5814 5814 5815 5815 5815 5816 5816 5816 5816 5817 5817 5817 5817 5816 5816 5816 5816 5816 5816 5815 5815 5814 5814 5814 5813 5813 5812 5812 5811 5810 5809 5809 5808 5807 5806 5804 5803 5801 5800 5798 5797 5795 5793
5809 5810 5810 5811 5811 5811 5812 5812 5812 5812 5812 5812 5812 5812 5811 5811 5811 5811 5811 5810 5810 5810 5809 5809 5809 5808 5808 5807 5807 5806 5805 5804 5803 5802 5801 5800 5798 5797 5795 5794 5792 5790 5787
5805 5805 5806 5807 5807 5807 5807 5808 5808 5808 5808 5807 5807 5807 5807 5807 5807 5806 5806 5806 5805 5805 5805 5804 5804 5804 5803 5803 5803 5802 5801 5800 5799 5798 5797 5795 5793 5792 5790 5788 5786 5784 5782
5800 5801 5801 5802 5803 5803 5803 5803 5803 5803 5803 5803 5803 5803 5803 5802 5802 5801 5801 5801 5801 5800 5800 5800 5799 5799 5799 5798 5798 5797 5796 5795 5794 5793 5791 5790 5788 5786 5785 5783 5780 5778 5776
5796 5797 5798 5798 5798 5799 5799 5799 5799 5799 5799 5799 5799 5799 5798 5798 5797 5797 5797 5796 5796 5796 5795 5795 5795 5794 5794 5793 5793 5792 5791 5790 5789 5787 5786 5784 5783 5781 5779 5777 5774 5772 5769
5792 5793 5793 5794 5794 5795 5795 5795 5795 5795 5795 5795 5795 5795 5794 5793 5793 5792 5792 5792 5791 5791 5791 5791 5790 5790 5789 5789 5788 5788 5787 5785 5784 5782 5781 5779 5777 5775 5773 5770 5768 5766 5763
5787 5788 5789 5790 5790 5790 5791 5791 5791 5791 5791 5791 5791 5790 5790 5789 5788 5787 5787 5787 5786 5786 5786 5786 5785 5785 5784 5784 5783 5782 5781 5780 5779 5777 5775 5773 5771 5769 5766 5764 5762 5759 5756
5783 5783 5784 5785 5785 5786 5786 5786 5786 5787 5787 5787 5786 5786 5785 5784 5784 5783 5782 5782 5781 5781 5780 5780 5780 5779 5779 5778 5777 5776 5775 5774 5773 5771 5769 5767 5765 5762 5760 5757 5755 5752 5748
5778 5779 5779 5780 5780 5781 5781 5782 5782 5782 5782 5782 5782 5781 5781 5780 5779 5779 5778 5777 5776 5775 5775 5774 5774 5773 5773 5772 5771 5770 5769 5768 5767 5765 5763 5760 5758 5756 5753 5750 5747 5744 5741
5772 5773 5774 5774 5775 5775 5776 5777 5777 5777 5777 5777 5777 5776 5776 5775 5775 5774 5773 5772 5771 5770 5769 5769 5768 5768 5767 5766 5765 5764 5763 5761 5760 5758 5756 5753 5751 5748 5746 5743 5740 5736 5733
5766 5767 5768 5769 5769 5770 5770 5771 5771 5771 5771 5771 5771 5771 5770 5770 5769 5769 5768 5767 5766 5765 5764 5763 5762 5762 5761 5760 5759 5758 5756 5755 5753 5751 5748 5746 5743 5741 5738 5735 5732 5728 5725
5760 5761 5762 5763 5763 5764 5764 5765 5765 5765 5765 5765 5765 5765 5764 5764 5763 5763 5762 5760 5759 5758 5758 5757 5756 5755 5754 5753 5752 5751 5749 5747 5745 5743 5741 5738 5736 5733 5730 5727 5723 5720 5716
5754 5754 5755 5756 5757 5757 5758 5758 5758 5758 5759 5759 5759 5758 5758 5757 5757 5756 5755 5754 5753 5752 5751 5750 5749 5748 5747 5746 5745 5743 5741 5739 5737 5735 5733 5730 5728 5725 5722 5719 5715 5711 5707
5747 5748 5748 5749 5750 5750 5750 5751 5751 5751 5751 5751 5751 5751 5750 5750 5749 5748 5748 5747 5746 5745 5744 5743 5742 5741 5740 5738 5737 5735 5733 5731 5729 5727 5724 5722 5719 5716 5713 5710 5706 5702 5699
5739 5740 5741 5742 5742 5743 5743 5743 5743 5743 5743 5743 5743 5743 5743 5742 5741 5741 5740 5739 5738 5737 5736 5735 5734 5733 5732 5730 5728 5727 5725 5723 5720 5718 5715 5712 5710 5707 5704 5701 5698 5694 5690
5731 5732 5733 5733 5734 5734 5734 5734 5734 5734 5735 5735 5735 5734 5734 5734 5733 5732 5731 5730 5729 5729 5728 5727 5726 5724 5723 5721 5720 5718 5716 5714 5711 5709 5707 5704 5701 5698 5695 5692 5689 5685 5681
5722 5723 5724 5725 5725 5726 5726 5726 5726 5726 5726 5725 5725 5725 5725 5724 5724 5724 5723 5721 5720 5719 5719 5718 5716 5715 5714 5712 5711 5709 5707 5705 5703 5700 5698 5695 5692 5689 5686 5683 5680 5677 5673
5713 5714 5715 5716 5717 5717 5717 5717 5717 5717 5717 5716 5716 5715 5715 5715 5714 5714 5713 5712 5711 5710 5709 5708 5707 5706 5704 5703 5701 5699 5698 5696 5694 5691 5689 5687 5684 5681 5678 5674 5671 5668 5664
5704 5705 5706 5707 5707 5708 5708 5708 5708 5708 5708 5707 5707 5706 5706 5705 5705 5704 5703 5703 5702 5701 5700 5699 5698 5696 5695 5693 5691 5690 5688 5686 5684 5682 5680 5678 5675 5672 5669 5666 5662 5659 5655
5694 5695 5697 5697 5698 5698 5699 5699 5699 5699 5698 5698 5698 5697 5697 5696 5695 5694 5694 5693 5692 5692 5690 5689 5688 5687 5686 5684 5682 5681 5679 5677 5675 5673 5671 5668 5666 5663 5660 5657 5653 5650 5646
5684 5685 5686 5687 5688 5688 5689 5689 5689 5689 5689 5688 5688 5687 5687 5686 5686 5685 5684 5683 5683 5682 5681 5680 5679 5678 5676 5675 5673 5671 5670 5668 5666 5664 5661 5659 5657 5654 5651 5648 5644 5641 5636